Year,Month,Day,Hour,Minute,Value (Times are PST for temperature in C)
2008,05,04,00,00,5.10
2008,05,04,00,01,5.10
2008,05,04,00,02,5.10
2008,05,04,00,03,5.10
2008,05,04,00,04,5.10
2008,05,04,00,05,5.10
2008,05,04,00,06,5.20
2008,05,04,00,07,5.20
2008,05,04,00,08,5.20
2008,05,04,00,09,5.20
2008,05,04,00,10,5.20
2008,05,04,00,11,5.20
2008,05,04,00,12,5.20
2008,05,04,00,13,5.20
2008,05,04,01,02,4.70
2008,05,04,01,03,4.70
2008,05,04,01,04,4.60
2008,05,04,01,05,4.60
2008,05,04,01,06,4.60
2008,05,04,01,07,4.60
2008,05,04,01,08,4.60
2008,05,04,01,09,4.60
2008,05,04,01,10,4.60
2008,05,04,01,11,4.50
2008,05,04,01,12,4.60
2008,05,04,01,13,4.50
2008,05,04,01,14,4.50
2008,05,04,01,15,4.50
2008,05,04,01,16,4.60
2008,05,04,01,17,4.60
2008,05,04,01,18,4.60
2008,05,04,01,19,4.60
2008,05,04,01,20,4.60
2008,05,04,01,21,4.60
2008,05,04,01,22,4.60
2008,05,04,01,23,4.50
2008,05,04,01,24,4.50
2008,05,04,01,25,4.50
2008,05,04,01,26,4.60
2008,05,04,01,27,4.60
2008,05,04,01,28,4.60
2008,05,04,01,29,4.70
2008,05,04,01,30,4.70
2008,05,04,01,31,4.80
2008,05,04,01,32,4.80
2008,05,04,01,33,4.80
2008,05,04,01,34,4.80
2008,05,04,01,35,4.80
2008,05,04,01,36,4.80
2008,05,04,01,37,4.70
2008,05,04,01,38,4.70
2008,05,04,01,39,4.70
2008,05,04,01,40,4.70
2008,05,04,01,41,4.70
2008,05,04,01,42,4.70
2008,05,04,01,43,4.70
2008,05,04,01,44,4.70
2008,05,04,01,45,4.70
2008,05,04,01,46,4.70
2008,05,04,01,47,4.70
2008,05,04,01,48,4.60
2008,05,04,01,49,4.60
2008,05,04,01,50,4.60
2008,05,04,01,51,4.60
2008,05,04,01,52,4.60
2008,05,04,01,53,4.60
2008,05,04,01,54,4.60
2008,05,04,01,55,4.60
2008,05,04,01,56,4.60
2008,05,04,01,57,4.60
2008,05,04,01,58,4.50
2008,05,04,01,59,4.50
2008,05,04,02,00,4.50
2008,05,04,02,01,4.50
2008,05,04,02,02,4.50
2008,05,04,02,03,4.50
2008,05,04,02,04,4.50
2008,05,04,02,05,4.50
2008,05,04,02,06,4.50
2008,05,04,02,07,4.50
2008,05,04,02,08,4.50
2008,05,04,02,09,4.50
2008,05,04,02,10,4.50
2008,05,04,02,11,4.50
2008,05,04,02,12,4.50
2008,05,04,02,13,4.50
2008,05,04,02,14,4.40
2008,05,04,02,15,4.40
2008,05,04,02,16,4.40
2008,05,04,02,17,4.40
2008,05,04,02,18,4.30
2008,05,04,02,19,4.30
2008,05,04,02,20,4.30
2008,05,04,02,21,4.30
2008,05,04,02,22,4.30
2008,05,04,02,23,4.30
2008,05,04,02,24,4.30
2008,05,04,02,25,4.30
2008,05,04,02,26,4.30
2008,05,04,02,27,4.40
2008,05,04,02,28,4.40
2008,05,04,02,29,4.40
2008,05,04,02,30,4.40
2008,05,04,02,31,4.40
2008,05,04,02,32,4.40
2008,05,04,02,33,4.30
2008,05,04,02,34,4.30
2008,05,04,02,35,4.30
2008,05,04,02,36,4.30
2008,05,04,02,37,4.30
2008,05,04,02,38,4.30
2008,05,04,02,39,4.30
2008,05,04,02,40,4.30
2008,05,04,02,41,4.20
2008,05,04,02,42,4.20
2008,05,04,02,43,4.20
2008,05,04,02,44,4.20
2008,05,04,02,45,4.20
2008,05,04,02,46,4.20
2008,05,04,02,47,4.20
2008,05,04,02,48,4.20
2008,05,04,02,49,4.30
2008,05,04,02,50,4.30
2008,05,04,02,51,4.30
2008,05,04,02,52,4.30
2008,05,04,02,53,4.30
2008,05,04,02,54,4.20
2008,05,04,02,55,4.20
2008,05,04,02,56,4.20
2008,05,04,02,57,4.20
2008,05,04,02,58,4.20
2008,05,04,02,59,4.20
2008,05,04,03,00,4.20
2008,05,04,03,01,4.20
2008,05,04,03,02,4.20
2008,05,04,03,03,4.20
2008,05,04,03,04,4.20
2008,05,04,03,05,4.20
2008,05,04,03,06,4.20
2008,05,04,03,07,4.20
2008,05,04,03,08,4.20
2008,05,04,03,09,4.20
2008,05,04,03,10,4.20
2008,05,04,03,11,4.20
2008,05,04,03,12,4.20
2008,05,04,03,13,4.20
2008,05,04,03,14,4.20
2008,05,04,03,15,4.20
2008,05,04,03,16,4.20
2008,05,04,03,17,4.20
2008,05,04,03,18,4.20
2008,05,04,03,19,4.20
2008,05,04,03,20,4.20
2008,05,04,03,21,4.20
2008,05,04,03,22,4.20
2008,05,04,03,23,4.20
2008,05,04,03,24,4.20
2008,05,04,03,25,4.20
2008,05,04,03,26,4.20
2008,05,04,03,27,4.20
2008,05,04,03,28,4.20
2008,05,04,03,29,4.20
2008,05,04,03,30,4.20
2008,05,04,03,31,4.20
2008,05,04,03,32,4.20
2008,05,04,03,33,4.20
2008,05,04,03,34,4.20
2008,05,04,03,35,4.20
2008,05,04,03,36,4.30
2008,05,04,03,37,4.30
2008,05,04,03,38,4.30
2008,05,04,03,39,4.30
2008,05,04,03,40,4.30
2008,05,04,03,41,4.30
2008,05,04,03,42,4.30
2008,05,04,03,43,4.30
2008,05,04,03,44,4.30
2008,05,04,03,45,4.30
2008,05,04,03,46,4.30
2008,05,04,03,47,4.30
2008,05,04,03,48,4.30
2008,05,04,03,49,4.30
2008,05,04,03,50,4.30
2008,05,04,03,51,4.30
2008,05,04,03,52,4.30
2008,05,04,03,53,4.30
2008,05,04,03,54,4.20
2008,05,04,03,55,4.20
2008,05,04,03,56,4.20
2008,05,04,03,57,4.20
2008,05,04,03,58,4.20
2008,05,04,03,59,4.20
2008,05,04,04,00,4.20
2008,05,04,04,01,4.20
2008,05,04,04,02,4.20
2008,05,04,04,03,4.20
2008,05,04,04,04,4.20
2008,05,04,04,05,4.20
2008,05,04,04,06,4.20
2008,05,04,04,07,4.10
2008,05,04,04,08,4.10
2008,05,04,04,09,4.10
2008,05,04,04,10,4.10
2008,05,04,04,11,4.00
2008,05,04,04,12,4.00
2008,05,04,04,13,4.00
2008,05,04,04,14,4.10
2008,05,04,04,15,4.10
2008,05,04,04,16,4.10
2008,05,04,04,17,4.10
2008,05,04,04,18,4.20
2008,05,04,04,19,4.20
2008,05,04,04,20,4.20
2008,05,04,04,21,4.20
2008,05,04,04,22,4.20
2008,05,04,04,23,4.20
2008,05,04,04,24,4.20
2008,05,04,04,25,4.20
2008,05,04,04,26,4.20
2008,05,04,04,27,4.20
2008,05,04,04,28,4.20
2008,05,04,04,29,4.20
2008,05,04,04,30,4.20
2008,05,04,04,31,4.20
2008,05,04,04,32,4.20
2008,05,04,04,33,4.20
2008,05,04,04,34,4.20
2008,05,04,04,35,4.20
2008,05,04,04,36,4.10
2008,05,04,04,37,4.10
2008,05,04,04,38,4.10
2008,05,04,04,39,4.10
2008,05,04,04,40,4.10
2008,05,04,04,41,4.00
2008,05,04,04,42,4.00
2008,05,04,04,43,3.90
2008,05,04,04,44,3.90
2008,05,04,04,45,3.90
2008,05,04,04,46,3.90
2008,05,04,04,47,3.90
2008,05,04,04,48,4.00
2008,05,04,04,49,4.00
2008,05,04,04,50,4.00
2008,05,04,04,51,4.00
2008,05,04,04,52,4.00
2008,05,04,04,53,4.10
2008,05,04,04,54,4.10
2008,05,04,04,55,4.10
2008,05,04,04,56,4.10
2008,05,04,04,57,4.10
2008,05,04,04,58,4.10
2008,05,04,04,59,4.00
2008,05,04,05,00,4.00
2008,05,04,05,01,4.00
2008,05,04,05,02,4.00
2008,05,04,05,03,4.00
2008,05,04,05,04,4.10
2008,05,04,05,05,4.10
2008,05,04,05,06,4.10
2008,05,04,05,07,4.10
2008,05,04,05,08,4.10
2008,05,04,05,09,4.10
2008,05,04,05,10,4.10
2008,05,04,05,11,4.10
2008,05,04,05,12,4.10
2008,05,04,05,13,4.10
2008,05,04,05,14,4.10
2008,05,04,05,15,4.10
2008,05,04,05,16,4.10
2008,05,04,05,17,4.10
2008,05,04,05,18,4.10
2008,05,04,05,19,4.10
2008,05,04,05,20,4.10
2008,05,04,05,21,4.10
2008,05,04,05,22,4.10
2008,05,04,05,23,4.10
2008,05,04,05,24,4.10
2008,05,04,05,25,4.10
2008,05,04,05,26,4.10
2008,05,04,05,27,4.00
2008,05,04,05,28,4.00
2008,05,04,05,29,4.00
2008,05,04,05,30,4.00
2008,05,04,05,31,4.00
2008,05,04,05,32,4.00
2008,05,04,05,33,4.00
2008,05,04,05,34,4.00
2008,05,04,05,35,4.00
2008,05,04,05,36,4.00
2008,05,04,05,37,4.00
2008,05,04,05,38,4.00
2008,05,04,05,39,4.00
2008,05,04,05,40,4.00
2008,05,04,05,41,4.00
2008,05,04,05,42,3.90
2008,05,04,05,43,3.90
2008,05,04,05,44,3.90
2008,05,04,05,45,3.90
2008,05,04,05,46,3.90
2008,05,04,05,47,3.90
2008,05,04,05,48,3.90
2008,05,04,05,49,3.90
2008,05,04,05,50,3.90
2008,05,04,05,51,3.90
2008,05,04,05,52,3.80
2008,05,04,05,53,3.80
2008,05,04,05,54,3.80
2008,05,04,05,55,3.80
2008,05,04,05,56,3.80
2008,05,04,05,57,3.80
2008,05,04,05,58,3.80
2008,05,04,05,59,3.80
2008,05,04,06,00,3.80
2008,05,04,06,01,3.90
2008,05,04,06,02,3.90
2008,05,04,06,03,3.90
2008,05,04,06,04,3.90
2008,05,04,06,05,3.90
2008,05,04,06,06,3.90
2008,05,04,06,07,3.90
2008,05,04,06,08,3.90
2008,05,04,06,09,3.80
2008,05,04,06,10,3.80
2008,05,04,06,11,3.80
2008,05,04,06,12,3.80
2008,05,04,06,13,3.80
2008,05,04,06,14,3.70
2008,05,04,06,15,3.70
2008,05,04,06,16,3.70
2008,05,04,06,17,3.70
2008,05,04,06,18,3.70
2008,05,04,06,19,3.80
2008,05,04,06,20,3.80
2008,05,04,06,21,3.80
2008,05,04,06,22,3.80
2008,05,04,06,23,3.80
2008,05,04,06,24,3.80
2008,05,04,06,25,3.80
2008,05,04,06,26,3.80
2008,05,04,06,27,3.90
2008,05,04,06,28,3.90
2008,05,04,06,29,4.00
2008,05,04,06,30,4.00
2008,05,04,06,31,4.00
2008,05,04,06,32,4.00
2008,05,04,06,33,4.00
2008,05,04,06,34,4.10
2008,05,04,06,35,4.00
2008,05,04,06,36,4.00
2008,05,04,06,37,4.10
2008,05,04,06,38,4.10
2008,05,04,06,39,4.10
2008,05,04,06,40,4.10
2008,05,04,06,41,4.10
2008,05,04,06,42,4.10
2008,05,04,06,43,4.10
2008,05,04,06,44,4.20
2008,05,04,06,45,4.20
2008,05,04,06,46,4.20
2008,05,04,06,47,4.20
2008,05,04,06,48,4.20
2008,05,04,06,49,4.20
2008,05,04,06,50,4.20
2008,05,04,06,51,4.20
2008,05,04,06,52,4.20
2008,05,04,06,53,4.20
2008,05,04,06,54,4.20
2008,05,04,06,55,4.20
2008,05,04,06,56,4.20
2008,05,04,06,57,4.30
2008,05,04,06,58,4.30
2008,05,04,06,59,4.30
2008,05,04,07,00,4.30
2008,05,04,07,01,4.30
2008,05,04,07,02,4.30
2008,05,04,07,03,4.30
2008,05,04,07,04,4.30
2008,05,04,07,05,4.30
2008,05,04,07,06,4.40
2008,05,04,07,07,4.40
2008,05,04,07,08,4.40
2008,05,04,07,09,4.40
2008,05,04,07,10,4.40
2008,05,04,07,11,4.40
2008,05,04,07,12,4.40
2008,05,04,07,13,4.50
2008,05,04,07,14,4.50
2008,05,04,07,15,4.50
2008,05,04,07,16,4.60
2008,05,04,07,17,4.60
2008,05,04,07,18,4.60
2008,05,04,07,19,4.60
2008,05,04,07,20,4.60
2008,05,04,07,21,4.60
2008,05,04,07,22,4.70
2008,05,04,07,23,4.70
2008,05,04,07,24,4.70
2008,05,04,07,25,4.80
2008,05,04,07,26,4.80
2008,05,04,07,27,4.80
2008,05,04,07,28,4.90
2008,05,04,07,29,4.90
2008,05,04,07,30,4.90
2008,05,04,07,31,5.00
2008,05,04,07,32,5.00
2008,05,04,07,33,5.10
2008,05,04,07,34,5.10
2008,05,04,07,35,5.10
2008,05,04,07,36,5.20
2008,05,04,07,37,5.20
2008,05,04,07,38,5.20
2008,05,04,07,39,5.30
2008,05,04,07,40,5.30
2008,05,04,07,41,5.30
2008,05,04,07,42,5.30
2008,05,04,07,43,5.30
2008,05,04,07,44,5.40
2008,05,04,07,45,5.40
2008,05,04,07,46,5.40
2008,05,04,07,47,5.40
2008,05,04,07,48,5.40
2008,05,04,07,49,5.50
2008,05,04,07,50,5.50
2008,05,04,07,51,5.50
2008,05,04,07,52,5.50
2008,05,04,07,53,5.50
2008,05,04,07,54,5.60
2008,05,04,07,55,5.60
2008,05,04,07,56,5.60
2008,05,04,07,57,5.70
2008,05,04,07,58,5.70
2008,05,04,07,59,5.80
2008,05,04,08,00,5.80
2008,05,04,08,01,5.90
2008,05,04,08,02,5.90
2008,05,04,08,03,5.90
2008,05,04,08,04,6.00
2008,05,04,08,05,6.00
2008,05,04,08,06,6.10
2008,05,04,08,07,6.10
2008,05,04,08,08,6.20
2008,05,04,08,09,6.30
2008,05,04,08,10,6.30
2008,05,04,08,11,6.40
2008,05,04,08,12,6.50
2008,05,04,08,13,6.60
2008,05,04,08,14,6.60
2008,05,04,08,15,6.70
2008,05,04,08,16,6.70
2008,05,04,08,17,6.70
2008,05,04,08,18,6.80
2008,05,04,08,19,6.80
2008,05,04,08,20,6.80
2008,05,04,08,21,6.80
2008,05,04,08,22,6.90
2008,05,04,08,23,6.90
2008,05,04,08,24,7.00
2008,05,04,08,25,7.00
2008,05,04,08,26,7.10
2008,05,04,08,27,7.20
2008,05,04,08,28,7.20
2008,05,04,08,29,7.20
2008,05,04,08,30,7.30
2008,05,04,08,31,7.30
2008,05,04,08,32,7.40
2008,05,04,08,33,7.50
2008,05,04,08,34,7.60
2008,05,04,08,35,7.60
2008,05,04,08,36,7.60
2008,05,04,08,37,7.70
2008,05,04,08,38,7.70
2008,05,04,08,39,7.80
2008,05,04,08,40,7.80
2008,05,04,08,41,7.80
2008,05,04,08,42,7.90
2008,05,04,08,43,8.00
2008,05,04,08,44,8.00
2008,05,04,08,45,8.10
2008,05,04,08,46,8.10
2008,05,04,08,47,8.20
2008,05,04,08,48,8.20
2008,05,04,08,49,8.30
2008,05,04,08,50,8.40
2008,05,04,08,51,8.50
2008,05,04,08,52,8.60
2008,05,04,08,53,8.60
2008,05,04,08,54,8.70
2008,05,04,08,55,8.70
2008,05,04,08,56,8.80
2008,05,04,08,57,8.80
2008,05,04,08,58,8.90
2008,05,04,08,59,9.00
2008,05,04,09,00,9.10
2008,05,04,09,01,9.00
2008,05,04,09,02,9.00
2008,05,04,09,03,9.00
2008,05,04,09,04,9.00
2008,05,04,09,05,9.10
2008,05,04,09,06,9.10
2008,05,04,09,07,9.10
2008,05,04,09,08,9.10
2008,05,04,09,09,9.20
2008,05,04,09,10,9.20
2008,05,04,09,11,9.30
2008,05,04,09,12,9.40
2008,05,04,09,13,9.50
2008,05,04,09,14,9.60
2008,05,04,09,15,9.60
2008,05,04,09,16,9.70
2008,05,04,09,17,9.90
2008,05,04,09,18,10.00
2008,05,04,09,19,10.00
2008,05,04,09,20,10.10
2008,05,04,09,21,10.20
2008,05,04,09,22,10.30
2008,05,04,09,23,10.40
2008,05,04,09,24,10.50
2008,05,04,09,25,10.70
2008,05,04,09,26,10.80
2008,05,04,09,27,11.00
2008,05,04,09,28,11.10
2008,05,04,09,29,11.20
2008,05,04,09,30,11.30
2008,05,04,09,31,11.40
2008,05,04,09,32,11.50
2008,05,04,09,33,11.60
2008,05,04,09,34,11.60
2008,05,04,09,35,11.70
2008,05,04,09,36,11.70
2008,05,04,09,37,11.70
2008,05,04,09,38,11.80
2008,05,04,09,39,11.80
2008,05,04,09,40,11.80
2008,05,04,09,41,11.70
2008,05,04,09,42,11.70
2008,05,04,09,43,11.70
2008,05,04,09,44,11.70
2008,05,04,09,45,11.70
2008,05,04,09,46,11.70
2008,05,04,09,47,11.60
2008,05,04,09,48,11.60
2008,05,04,09,49,11.60
2008,05,04,09,50,11.60
2008,05,04,09,51,11.60
2008,05,04,09,52,11.60
2008,05,04,09,53,11.60
2008,05,04,09,54,11.60
2008,05,04,09,55,11.60
2008,05,04,09,56,11.60
2008,05,04,09,57,11.70
2008,05,04,09,58,11.70
2008,05,04,09,59,11.80
2008,05,04,10,00,11.80
2008,05,04,10,01,11.70
2008,05,04,10,02,11.70
2008,05,04,10,03,11.60
2008,05,04,10,04,11.50
2008,05,04,10,05,11.50
2008,05,04,10,06,11.50
2008,05,04,10,07,11.40
2008,05,04,10,08,11.40
2008,05,04,10,09,11.40
2008,05,04,10,10,11.40
2008,05,04,10,11,11.40
2008,05,04,10,12,11.40
2008,05,04,10,13,11.50
2008,05,04,10,14,11.60
2008,05,04,10,15,11.70
2008,05,04,10,16,11.70
2008,05,04,10,17,11.70
2008,05,04,10,18,11.70
2008,05,04,10,19,11.70
2008,05,04,10,20,11.70
2008,05,04,10,21,11.70
2008,05,04,10,22,11.70
2008,05,04,10,23,11.70
2008,05,04,10,24,11.80
2008,05,04,10,25,11.80
2008,05,04,10,26,11.80
2008,05,04,10,27,11.80
2008,05,04,10,28,11.80
2008,05,04,10,29,11.90
2008,05,04,10,30,11.90
2008,05,04,10,31,11.90
2008,05,04,10,32,11.90
2008,05,04,10,33,11.90
2008,05,04,10,34,11.90
2008,05,04,10,35,11.90
2008,05,04,10,36,11.90
2008,05,04,10,37,11.90
2008,05,04,10,38,11.90
2008,05,04,10,39,11.90
2008,05,04,10,40,11.90
2008,05,04,10,41,11.90
2008,05,04,10,42,12.00
2008,05,04,10,43,12.00
2008,05,04,10,44,12.10
2008,05,04,10,45,12.10
2008,05,04,10,46,12.20
2008,05,04,10,47,12.30
2008,05,04,10,48,12.40
2008,05,04,10,49,12.50
2008,05,04,10,50,12.50
2008,05,04,10,51,12.60
2008,05,04,10,52,12.70
2008,05,04,10,53,12.70
2008,05,04,10,54,12.70
2008,05,04,10,55,12.60
2008,05,04,10,56,12.60
2008,05,04,10,57,12.60
2008,05,04,10,58,12.50
2008,05,04,10,59,12.50
2008,05,04,11,00,12.60
2008,05,04,11,01,12.60
2008,05,04,11,02,12.70
2008,05,04,11,03,12.80
2008,05,04,11,04,12.90
2008,05,04,11,05,13.00
2008,05,04,11,06,13.10
2008,05,04,11,07,13.00
2008,05,04,11,08,13.00
2008,05,04,11,09,13.10
2008,05,04,11,10,13.10
2008,05,04,11,11,13.10
2008,05,04,11,12,13.10
2008,05,04,11,13,13.10
2008,05,04,11,14,13.10
2008,05,04,11,15,13.10
2008,05,04,11,16,13.10
2008,05,04,11,17,13.20
2008,05,04,11,18,13.10
2008,05,04,11,19,13.10
2008,05,04,11,20,13.10
2008,05,04,11,21,13.00
2008,05,04,11,22,13.00
2008,05,04,11,23,13.10
2008,05,04,11,24,13.10
2008,05,04,11,25,13.10
2008,05,04,11,26,13.10
2008,05,04,11,27,13.10
2008,05,04,11,28,13.10
2008,05,04,11,29,13.10
2008,05,04,11,30,13.10
2008,05,04,11,31,13.10
2008,05,04,11,32,13.10
2008,05,04,11,33,13.00
2008,05,04,11,34,13.00
2008,05,04,11,35,13.00
2008,05,04,11,36,13.10
2008,05,04,11,37,13.10
2008,05,04,11,38,13.10
2008,05,04,11,39,13.10
2008,05,04,11,40,13.20
2008,05,04,11,41,13.10
2008,05,04,11,42,13.10
2008,05,04,11,43,13.10
2008,05,04,11,44,13.10
2008,05,04,11,45,13.20
2008,05,04,11,46,13.10
2008,05,04,11,47,13.10
2008,05,04,11,48,13.10
2008,05,04,11,49,13.10
2008,05,04,11,50,13.20
2008,05,04,11,51,13.20
2008,05,04,11,52,13.30
2008,05,04,11,53,13.20
2008,05,04,11,54,13.20
2008,05,04,11,55,13.20
2008,05,04,11,56,13.10
2008,05,04,11,57,13.10
2008,05,04,11,58,13.20
2008,05,04,11,59,13.20
2008,05,04,12,00,13.20
2008,05,04,12,01,13.20
2008,05,04,12,02,13.10
2008,05,04,12,03,13.10
2008,05,04,12,04,13.20
2008,05,04,12,05,13.20
2008,05,04,12,06,13.30
2008,05,04,12,07,13.30
2008,05,04,12,08,13.30
2008,05,04,12,09,13.30
2008,05,04,12,10,13.30
2008,05,04,12,11,13.30
2008,05,04,12,12,13.30
2008,05,04,12,13,13.30
2008,05,04,12,14,13.40
2008,05,04,12,15,13.40
2008,05,04,12,16,13.40
2008,05,04,12,17,13.40
2008,05,04,12,18,13.40
2008,05,04,12,19,13.40
2008,05,04,12,20,13.40
2008,05,04,12,21,13.40
2008,05,04,12,22,13.50
2008,05,04,12,23,13.60
2008,05,04,12,24,13.60
2008,05,04,12,25,13.70
2008,05,04,12,26,13.80
2008,05,04,12,27,13.80
2008,05,04,12,28,13.90
2008,05,04,12,29,13.90
2008,05,04,12,30,14.00
2008,05,04,12,31,14.00
2008,05,04,12,32,14.00
2008,05,04,12,33,14.00
2008,05,04,12,34,14.00
2008,05,04,12,35,14.00
2008,05,04,12,36,13.90
2008,05,04,12,37,14.00
2008,05,04,12,38,14.00
2008,05,04,12,39,14.10
2008,05,04,12,40,14.10
2008,05,04,12,41,14.10
2008,05,04,12,42,14.10
2008,05,04,12,43,14.10
2008,05,04,12,44,14.10
2008,05,04,12,45,14.10
2008,05,04,12,46,14.10
2008,05,04,12,47,14.10
2008,05,04,12,48,14.00
2008,05,04,12,49,13.90
2008,05,04,12,50,13.90
2008,05,04,12,51,14.00
2008,05,04,12,52,14.00
2008,05,04,12,53,14.00
2008,05,04,12,54,14.00
2008,05,04,12,55,14.00
2008,05,04,12,56,14.00
2008,05,04,12,57,14.00
2008,05,04,12,58,14.00
2008,05,04,12,59,14.10
2008,05,04,13,00,14.20
2008,05,04,13,01,14.20
2008,05,04,13,02,14.20
2008,05,04,13,03,14.10
2008,05,04,13,04,14.10
2008,05,04,13,05,14.00
2008,05,04,13,06,13.90
2008,05,04,13,07,13.90
2008,05,04,13,08,13.90
2008,05,04,13,09,13.90
2008,05,04,13,10,13.90
2008,05,04,13,11,13.90
2008,05,04,13,12,13.90
2008,05,04,13,13,13.80
2008,05,04,13,14,13.80
2008,05,04,13,15,13.80
2008,05,04,13,16,13.80
2008,05,04,13,17,13.70
2008,05,04,13,18,13.70
2008,05,04,13,19,13.70
2008,05,04,13,20,13.80
2008,05,04,13,21,13.90
2008,05,04,13,22,13.90
2008,05,04,13,23,13.90
2008,05,04,13,24,14.00
2008,05,04,13,25,14.00
2008,05,04,13,26,14.00
2008,05,04,13,27,14.00
2008,05,04,13,28,14.00
2008,05,04,13,29,14.00
2008,05,04,13,30,14.00
2008,05,04,13,31,14.00
2008,05,04,13,32,14.00
2008,05,04,13,33,14.00
2008,05,04,13,34,14.00
2008,05,04,13,35,14.00
2008,05,04,13,36,14.00
2008,05,04,13,37,14.10
2008,05,04,13,38,14.10
2008,05,04,13,39,14.00
2008,05,04,13,40,14.00
2008,05,04,13,41,14.00
2008,05,04,13,42,14.00
2008,05,04,13,43,13.90
2008,05,04,13,44,13.90
2008,05,04,13,45,13.90
2008,05,04,13,46,13.90
2008,05,04,13,47,14.00
2008,05,04,13,48,14.00
2008,05,04,13,49,14.00
2008,05,04,13,50,14.00
2008,05,04,13,51,13.90
2008,05,04,13,52,13.90
2008,05,04,13,53,13.80
2008,05,04,13,54,13.80
2008,05,04,13,55,13.80
2008,05,04,13,56,13.80
2008,05,04,13,57,13.80
2008,05,04,13,58,13.80
2008,05,04,13,59,13.80
2008,05,04,14,00,13.80
2008,05,04,14,01,13.80
2008,05,04,14,02,13.80
2008,05,04,14,03,13.80
2008,05,04,14,04,13.80
2008,05,04,14,05,13.70
2008,05,04,14,06,13.70
2008,05,04,14,07,13.70
2008,05,04,14,08,13.70
2008,05,04,14,09,13.70
2008,05,04,14,10,13.70
2008,05,04,14,11,13.70
2008,05,04,14,12,13.70
2008,05,04,14,13,13.70
2008,05,04,14,14,13.70
2008,05,04,14,15,13.60
2008,05,04,14,16,13.60
2008,05,04,14,17,13.60
2008,05,04,14,18,13.50
2008,05,04,14,19,13.50
2008,05,04,14,20,13.50
2008,05,04,14,21,13.60
2008,05,04,14,22,13.60
2008,05,04,14,23,13.60
2008,05,04,14,24,13.70
2008,05,04,14,25,13.70
2008,05,04,14,26,13.80
2008,05,04,14,27,13.90
2008,05,04,14,28,14.00
2008,05,04,14,29,14.10
2008,05,04,14,30,14.20
2008,05,04,14,31,14.30
2008,05,04,14,32,14.30
2008,05,04,14,33,14.40
2008,05,04,14,34,14.50
2008,05,04,14,35,14.60
2008,05,04,14,36,14.60
2008,05,04,14,37,14.70
2008,05,04,14,38,14.70
2008,05,04,14,39,14.60
2008,05,04,14,40,14.50
2008,05,04,14,41,14.50
2008,05,04,14,42,14.50
2008,05,04,14,43,14.50
2008,05,04,14,44,14.40
2008,05,04,14,45,14.40
2008,05,04,14,46,14.40
2008,05,04,14,47,14.40
2008,05,04,14,48,14.30
2008,05,04,14,49,14.30
2008,05,04,14,50,14.20
2008,05,04,14,51,14.20
2008,05,04,14,52,14.20
2008,05,04,14,53,14.20
2008,05,04,14,54,14.30
2008,05,04,14,55,14.30
2008,05,04,14,56,14.30
2008,05,04,14,57,14.40
2008,05,04,14,58,14.40
2008,05,04,14,59,14.50
2008,05,04,15,00,14.50
2008,05,04,15,01,14.50
2008,05,04,15,02,14.40
2008,05,04,15,03,14.40
2008,05,04,15,04,14.20
2008,05,04,15,05,14.20
2008,05,04,15,06,14.10
2008,05,04,15,07,14.10
2008,05,04,15,08,14.20
2008,05,04,15,09,14.30
2008,05,04,15,10,14.30
2008,05,04,15,11,14.30
2008,05,04,15,12,14.30
2008,05,04,15,13,14.30
2008,05,04,15,14,14.20
2008,05,04,15,15,14.20
2008,05,04,15,16,14.10
2008,05,04,15,17,14.00
2008,05,04,15,18,13.90
2008,05,04,15,19,13.80
2008,05,04,15,20,13.80
2008,05,04,15,21,13.80
2008,05,04,15,22,13.80
2008,05,04,15,23,13.80
2008,05,04,15,24,13.80
2008,05,04,15,25,13.80
2008,05,04,15,26,13.90
2008,05,04,15,27,13.90
2008,05,04,15,28,13.90
2008,05,04,15,29,13.90
2008,05,04,15,30,13.90
2008,05,04,15,31,14.00
2008,05,04,15,32,14.10
2008,05,04,15,33,14.10
2008,05,04,15,34,14.10
2008,05,04,15,35,14.10
2008,05,04,15,36,14.10
2008,05,04,15,37,14.10
2008,05,04,15,38,14.10
2008,05,04,15,39,14.10
2008,05,04,15,40,14.00
2008,05,04,15,41,13.90
2008,05,04,15,42,13.90
2008,05,04,15,43,13.90
2008,05,04,15,44,13.90
2008,05,04,15,45,13.90
2008,05,04,15,46,13.80
2008,05,04,15,47,13.80
2008,05,04,15,48,13.80
2008,05,04,15,49,13.80
2008,05,04,15,50,13.90
2008,05,04,15,51,13.90
2008,05,04,15,52,13.90
2008,05,04,15,53,13.90
2008,05,04,15,54,13.80
2008,05,04,15,55,13.70
2008,05,04,15,56,13.70
2008,05,04,15,57,13.60
2008,05,04,15,58,13.50
2008,05,04,15,59,13.50
2008,05,04,16,00,13.40
2008,05,04,16,01,13.30
2008,05,04,16,02,13.20
2008,05,04,16,03,13.10
2008,05,04,16,04,13.00
2008,05,04,16,05,12.80
2008,05,04,16,06,12.50
2008,05,04,16,07,12.30
2008,05,04,16,08,12.20
2008,05,04,16,09,12.10
2008,05,04,16,10,12.00
2008,05,04,16,11,12.00
2008,05,04,16,12,11.90
2008,05,04,16,13,11.90
2008,05,04,16,14,11.90
2008,05,04,16,15,11.90
2008,05,04,16,16,11.90
2008,05,04,16,17,12.00
2008,05,04,16,18,12.00
2008,05,04,16,19,12.10
2008,05,04,16,20,12.20
2008,05,04,16,21,12.20
2008,05,04,16,22,12.20
2008,05,04,16,23,12.20
2008,05,04,16,24,12.20
2008,05,04,16,25,12.20
2008,05,04,16,26,12.30
2008,05,04,16,27,12.30
2008,05,04,16,28,12.30
2008,05,04,16,29,12.30
2008,05,04,16,30,12.30
2008,05,04,16,31,12.40
2008,05,04,16,32,12.40
2008,05,04,16,33,12.40
2008,05,04,16,34,12.40
2008,05,04,16,35,12.50
2008,05,04,16,36,12.40
2008,05,04,16,37,12.40
2008,05,04,16,38,12.40
2008,05,04,16,39,12.50
2008,05,04,16,40,12.50
2008,05,04,16,41,12.50
2008,05,04,16,42,12.60
2008,05,04,16,43,12.60
2008,05,04,16,44,12.60
2008,05,04,16,45,12.70
2008,05,04,16,46,12.70
2008,05,04,16,47,12.80
2008,05,04,16,48,12.80
2008,05,04,16,49,12.80
2008,05,04,16,50,12.70
2008,05,04,16,51,12.60
2008,05,04,16,52,12.60
2008,05,04,16,53,12.60
2008,05,04,16,54,12.60
2008,05,04,16,55,12.60
2008,05,04,16,56,12.60
2008,05,04,16,57,12.70
2008,05,04,16,58,12.70
2008,05,04,16,59,12.80
2008,05,04,17,00,12.80
2008,05,04,17,01,12.90
2008,05,04,17,02,12.90
2008,05,04,17,03,12.90
2008,05,04,17,04,13.00
2008,05,04,17,05,13.10
2008,05,04,17,06,13.10
2008,05,04,17,07,13.10
2008,05,04,17,08,13.10
2008,05,04,17,09,13.10
2008,05,04,17,10,13.10
2008,05,04,17,11,13.10
2008,05,04,17,12,13.10
2008,05,04,17,13,13.10
2008,05,04,17,14,13.10
2008,05,04,17,15,13.20
2008,05,04,17,16,13.20
2008,05,04,17,17,13.20
2008,05,04,17,18,13.20
2008,05,04,17,19,13.30
2008,05,04,17,20,13.30
2008,05,04,17,21,13.30
2008,05,04,17,22,13.40
2008,05,04,17,23,13.50
2008,05,04,17,24,13.60
2008,05,04,17,25,13.70
2008,05,04,17,26,13.80
2008,05,04,17,27,13.80
2008,05,04,17,28,13.80
2008,05,04,17,29,13.80
2008,05,04,17,30,13.80
2008,05,04,17,31,13.80
2008,05,04,17,32,13.80
2008,05,04,17,33,13.80
2008,05,04,17,34,13.80
2008,05,04,17,35,13.70
2008,05,04,17,36,13.70
2008,05,04,17,37,13.70
2008,05,04,17,38,13.70
2008,05,04,17,39,13.70
2008,05,04,17,40,13.70
2008,05,04,17,41,13.70
2008,05,04,17,42,13.80
2008,05,04,17,43,13.80
2008,05,04,17,44,13.90
2008,05,04,17,45,14.00
2008,05,04,17,46,14.00
2008,05,04,17,47,14.00
2008,05,04,17,48,14.00
2008,05,04,17,49,13.90
2008,05,04,17,50,13.90
2008,05,04,17,51,13.90
2008,05,04,17,52,13.80
2008,05,04,17,53,13.80
2008,05,04,17,54,13.80
2008,05,04,17,55,13.80
2008,05,04,17,56,13.70
2008,05,04,17,57,13.70
2008,05,04,17,58,13.70
2008,05,04,17,59,13.70
2008,05,04,18,00,13.70
2008,05,04,18,01,13.80
2008,05,04,18,02,13.80
2008,05,04,18,03,13.80
2008,05,04,18,04,13.80
2008,05,04,18,05,13.80
2008,05,04,18,06,13.90
2008,05,04,18,07,13.90
2008,05,04,18,08,13.80
2008,05,04,18,09,13.70
2008,05,04,18,10,13.70
2008,05,04,18,11,13.60
2008,05,04,18,12,13.60
2008,05,04,18,13,13.60
2008,05,04,18,14,13.60
2008,05,04,18,15,13.60
2008,05,04,18,16,13.50
2008,05,04,18,17,13.50
2008,05,04,18,18,13.50
2008,05,04,18,19,13.50
2008,05,04,18,20,13.50
2008,05,04,18,21,13.50
2008,05,04,18,22,13.40
2008,05,04,18,23,13.50
2008,05,04,18,24,13.50
2008,05,04,18,25,13.30
2008,05,04,18,26,13.30
2008,05,04,18,27,13.20
2008,05,04,18,28,13.10
2008,05,04,18,29,13.00